User: anonymous   Login
Location: Poughquag
(41.6090°N, 73.6820°W)
Time: 16:41:58
(UTC-04:00)
Language:

DIWATA 2B (PO-101) - Orbit

View from above orbital plane
View from above orbital plane
View from above satellite
View from above satellite

Ground track
Ground track

The orbit data is extracted from the following two-line orbital elements,

1 43678U 18084H   24205.54146575  .00003554  00000-0  32634-3 0  9997
2 43678  98.0762   4.6045 0007545 271.6513  88.3842 14.95495829312350
Epoch (UTC): 23 July 2024 12:59:42
Eccentricity: 0.0007545
inclination: 98.0762°
perigee height: 575 km
apogee height: 586 km
right ascension of ascending node: 4.6045°
argument of perigee: 271.6513°
revolutions per day: 14.95495829
mean anomaly at epoch: 88.3842°
orbit number at epoch: 31235

The dashed part of the orbit path shows where the satellite is in the earth's shadow,  

DLR